Weather History for Joplin, MO

Change the Weather History Date:

Friday, April 26, 2013

  Actual Average Record
Temperature  
Mean Temperature 54 °F 62 °F  
Max Temperature 60 °F 73 °F 90 °F (1987)
Min Temperature 47 °F 50 °F 27 °F (1976)
Degree Days  
Heating Degree Days 11 5  
Month to date heating degree days 314 222  
Since 1 July heating degree days 4087 3984  
Cooling Degree Days 0 2  
Month to date cooling degree days 14 36  
Year to date cooling degree days 15 46  
Growing Degree Days 3 (Base 50)    
Moisture  
Dew Point 45 °F    
Average Humidity 68    
Maximum Humidity 100    
Minimum Humidity 36    
Precipitation  
Precipitation 1.72 in 0.18 in 1.94 in (1999)
Month to date precipitation 5.99 3.74  
Year to date precipitation 13.84 11.51  
Snow  
Snow 0.00 in - - ()
Month to date snowfall T  
Snow Depth 0.00 in    
Sea Level Pressure  
Sea Level Pressure 30.19 in    
Wind  
Wind Speed 10 mph (ESE)    
Max Wind Speed 26 mph    
Max Gust Speed 32 mph    
Visibility 6 miles    
Events Rain , Thunderstorm    
T = Trace of Precipitation, MM = Missing Value Source: NWS Daily Summary

Daily Weather History Graph

Daily Weather History Graph

Search for Another Location

Airport:

Trip Planner

Search our weather history database for the weather conditions in past years. The results will help you decide how hot, cold, wet, or windy it might be!

Date:

Astronomy

Apr. 26, 2013 Rise Set
Actual Time 6:28 AM CDT 8:03 PM CDT
Civil Twilight 6:01 AM CDT 8:30 PM CDT
Nautical Twilight 5:28 AM CDT 9:04 PM CDT
Astronomical Twilight 4:53 AM CDT 9:39 PM CDT
Moon 9:24 PM CDT (4/26) 6:58 AM CDT (4/26)
Length of Visible Light 14h 29m
Length of Day
13h 34m
Full, 99% of the Moon is Illuminated
Apr 26
Full
May 2
Last Quarter
May 9
New
May 17
First Quarter
May 24
Full

Hourly Weather History & Observations

Time (CDT) Temp. Dew Point Humidity Pressure Visibility Wind Dir Wind Speed Gust Speed Precip Events Conditions
12:53 AM 60.1 °F 33.1 °F 36% 30.15 in 10.0 mi South 18.4 mph 26.5 mph N/A   Clear
1:53 AM 59.0 °F 33.1 °F 38% 30.19 in 10.0 mi SE 4.6 mph - N/A   Clear
2:53 AM 57.9 °F 35.1 °F 42% 30.17 in 10.0 mi South 16.1 mph 21.9 mph N/A   Partly Cloudy
3:53 AM 54.0 °F 42.1 °F 64% 30.20 in 6.0 mi South 9.2 mph - 0.01 in Rain Rain
4:24 AM 53.6 °F 42.8 °F 67% 30.17 in 10.0 mi SSE 15.0 mph 23.0 mph 0.03 in Rain , Thunderstorm Light Rain
4:49 AM 50.0 °F 46.4 °F 87% 30.24 in 1.8 mi Calm Calm - 0.17 in Rain , Thunderstorm Heavy Thunderstorms and Rain
4:53 AM 48.9 °F 46.0 °F 90% 30.24 in 1.5 mi Calm Calm - 0.20 in Rain , Thunderstorm Heavy Thunderstorms and Rain
4:58 AM 48.2 °F 46.4 °F 93% 30.23 in 3.0 mi NE 4.6 mph - 0.01 in Rain , Thunderstorm Thunderstorms and Rain
5:19 AM 50.0 °F 46.4 °F 87% 30.22 in 8.0 mi ESE 6.9 mph - 0.04 in Rain , Thunderstorm Light Rain
5:47 AM 50.0 °F 46.4 °F 87% 30.18 in 9.0 mi SE 11.5 mph 20.7 mph 0.09 in Rain , Thunderstorm Light Thunderstorms and Rain
5:53 AM 50.0 °F 46.0 °F 86% 30.18 in 8.0 mi ESE 9.2 mph 20.7 mph 0.09 in Rain , Thunderstorm Light Thunderstorms and Rain
6:53 AM 48.0 °F 44.1 °F 86% 30.29 in 7.0 mi NNE 6.9 mph - 0.13 in Rain , Thunderstorm Light Thunderstorms and Rain
7:53 AM 46.9 °F 44.1 °F 90% 30.28 in 8.0 mi East 8.1 mph - 0.06 in Rain , Thunderstorm Light Thunderstorms and Rain
8:53 AM 46.9 °F 44.1 °F 90% 30.24 in 10.0 mi East 15.0 mph - 0.06 in Rain , Thunderstorm Light Thunderstorms and Rain
9:53 AM 48.9 °F 44.1 °F 83% 30.32 in 4.0 mi ESE 5.8 mph 19.6 mph 0.05 in Rain , Thunderstorm Thunderstorms and Rain
10:53 AM 48.9 °F 46.0 °F 90% 30.28 in 4.0 mi ESE 9.2 mph - 0.11 in Rain Rain
11:53 AM 48.9 °F 45.0 °F 86% 30.25 in 5.0 mi ESE 17.3 mph - 0.12 in Rain Light Rain
12:22 PM 48.2 °F 44.6 °F 87% 30.26 in 2.0 mi SE 13.8 mph 25.3 mph 0.10 in Rain , Thunderstorm Heavy Thunderstorms and Rain
12:29 PM 48.2 °F 44.6 °F 87% 30.26 in 4.0 mi SSE 15.0 mph 24.2 mph 0.11 in Rain , Thunderstorm Light Thunderstorms and Rain
12:53 PM 48.0 °F 46.0 °F 93% 30.22 in 4.0 mi SE 17.3 mph 27.6 mph 0.15 in Rain , Thunderstorm Light Thunderstorms and Rain
1:25 PM 48.2 °F 44.6 °F 87% 30.18 in 1.8 mi SE 18.4 mph 27.6 mph 0.12 in Rain , Thunderstorm Thunderstorms and Rain
1:34 PM 48.2 °F 46.4 °F 93% 30.20 in 5.0 mi SE 16.1 mph 26.5 mph 0.18 in Rain , Thunderstorm Light Thunderstorms and Rain
1:53 PM 48.9 °F 46.0 °F 90% 30.16 in 5.0 mi SE 18.4 mph 27.6 mph 0.19 in Rain , Thunderstorm Light Thunderstorms and Rain
2:39 PM 50.0 °F 44.6 °F 82% 30.16 in 10.0 mi SE 15.0 mph 25.3 mph 0.00 in Rain Light Rain
2:53 PM 50.0 °F 45.0 °F 83% 30.16 in 10.0 mi SSE 15.0 mph 27.6 mph 0.00 in Rain Light Rain
3:24 PM 50.0 °F 44.6 °F 82% 30.17 in 2.0 mi SE 16.1 mph 24.2 mph 0.02 in Rain Light Rain
3:36 PM 50.0 °F 46.4 °F 87% 30.17 in 3.0 mi SE 12.7 mph 18.4 mph 0.04 in Rain , Thunderstorm Light Thunderstorms and Rain
3:53 PM 50.0 °F 46.0 °F 86% 30.16 in 6.0 mi ESE 11.5 mph 18.4 mph 0.06 in Rain , Thunderstorm Light Thunderstorms and Rain
4:53 PM 50.0 °F 46.9 °F 89% 30.16 in 3.0 mi SE 9.2 mph - 0.02 in Rain Light Rain
4:57 PM 50.0 °F 46.4 °F 87% 30.15 in 2.0 mi SE 10.4 mph - 0.01 in Rain Light Rain
5:53 PM 48.9 °F 48.0 °F 97% 30.14 in 2.0 mi ESE 11.5 mph - 0.05 in Rain Light Rain
6:53 PM 48.9 °F 48.0 °F 97% 30.13 in 2.0 mi ESE 12.7 mph - 0.13 in Rain Rain
7:53 PM 48.9 °F 48.0 °F 97% 30.14 in 2.0 mi ESE 10.4 mph - 0.16 in Rain Heavy Rain
8:53 PM 48.9 °F 48.0 °F 97% 30.15 in 3.0 mi East 6.9 mph - 0.09 in Rain Light Rain
9:53 PM 48.9 °F 48.0 °F 97% 30.16 in 6.0 mi East 9.2 mph - 0.02 in   Overcast
10:16 PM 48.2 °F 48.2 °F 100% 30.16 in 5.0 mi East 6.9 mph - N/A   Overcast
10:53 PM 48.9 °F 48.0 °F 97% 30.16 in 4.0 mi ENE 5.8 mph - 0.02 in Rain Rain
11:49 PM 50.0 °F 48.2 °F 94% 30.13 in 8.0 mi ESE 8.1 mph - 0.00 in   Overcast
11:53 PM 50.0 °F 48.0 °F 93% 30.13 in 9.0 mi East 5.8 mph - 0.00 in   Overcast